Location: Azul
(36.7830°S, 59.8500°W)
Time: 15:15:41
(UTC-03:00)

CAS-4A - Visible Passes

Search period start: 02 October 2022 00:00
Search period end: 12 October 2022 00:00
Orbit: 520 x 535 km, 43.0° (Epoch: 02 October)

Date Brightness Start Highest point End Pass type
(mag) Time Alt. Az. Time Alt. Az. Time Alt. Az.
02 Oct ? 04:43:37 16° NNE 04:43:37 16° NNE 04:44:36 10° NNE visible
03 Oct ? 19:52:31 10° NNE 19:54:32 13° NE 19:55:10 13° NE visible
03 Oct ? 21:29:57 10° NW 21:30:25 13° NW 21:30:25 13° NW visible
04 Oct ? 19:38:39 10° N 19:41:18 17° NE 19:43:44 11° E visible
04 Oct ? 21:16:47 10° WNW 21:18:58 31° WNW 21:18:58 31° WNW visible
05 Oct ? 21:03:38 10° WNW 21:07:18 70° W 21:07:18 70° W visible
06 Oct ? 20:50:31 10° WNW 20:54:33 69° SSW 20:55:27 50° SE visible
07 Oct ? 20:37:23 10° W 20:41:25 60° SSW 20:43:23 28° SE visible
07 Oct ? 22:18:07 10° WSW 22:18:35 13° WSW 22:18:35 13° WSW visible
08 Oct ? 20:24:18 10° W 20:28:16 53° SSW 20:31:11 17° SE visible
08 Oct ? 22:05:01 10° WSW 22:06:21 18° SW 22:06:21 18° SW visible
09 Oct ? 20:11:12 10° W 20:15:09 47° SSW 20:18:50 11° ESE visible
09 Oct ? 21:51:55 10° WSW 21:54:01 24° SW 21:54:01 24° SW visible
10 Oct ? 19:58:06 10° W 20:02:00 43° SSW 20:05:54 10° ESE visible
10 Oct ? 21:38:47 10° WSW 21:41:34 30° SSW 21:41:34 30° SSW visible
11 Oct ? 19:45:01 10° W 19:48:51 39° SSW 19:52:43 10° ESE visible
11 Oct ? 21:25:38 10° WSW 21:29:03 34° S 21:29:03 34° S visible
